Weather History for KTVL - April, 2014

Change the Weather History Date:

Monday, April 14, 2014

  Actual Average Record
Temperature  
Mean Temperature 47 °F 40 °F  
Max Temperature 68 °F 54 °F 74 °F (1985)
Min Temperature 25 °F 26 °F 15 °F (1972)
Degree Days  
Heating Degree Days 18 25  
Month to date heating degree days 308 368  
Since 1 July heating degree days 5708 6520  
Cooling Degree Days 0 0  
Month to date cooling degree days 0 0  
Year to date cooling degree days 0 0  
Moisture  
Dew Point 24 °F    
Average Humidity 47    
Maximum Humidity 76    
Minimum Humidity 17    
Precipitation  
Precipitation 0.00 in - - ()
Month to date precipitation 0.05  
Year to date precipitation 10.39  
Sea Level Pressure  
Sea Level Pressure 30.16 in    
Wind  
Wind Speed 4 mph (South)    
Max Wind Speed 13 mph    
Max Gust Speed 21 mph    
Visibility 10 miles    
Events      
T = Trace of Precipitation, MM = Missing Value Source: NWS Daily Summary

Daily Weather History Graph

Daily Weather History Graph

Search for Another Location

Airport or City:

Trip Planner

Search our weather history database for the weather conditions in past years. The results will help you decide how hot, cold, wet, or windy it might be!

Date:

Astronomy

Apr. 14, 2014 Rise Set
Actual Time 6:24 AM PDT 7:36 PM PDT
Civil Twilight 5:57 AM PDT 8:03 PM PDT
Nautical Twilight 5:24 AM PDT 8:36 PM PDT
Astronomical Twilight 4:50 AM PDT 9:11 PM PDT
Moon 7:20 PM PDT (4/14) 5:59 AM PDT (4/14)
Length of Visible Light 14h 06m
Length of Day
13h 11m
Full, 100% of the Moon is Illuminated
Apr 14
Full
Apr 15
Full
Apr 22
Last Quarter
Apr 28
New
May 6
First Quarter

Hourly Weather History & Observations

Time (PDT) Temp. Windchill Dew Point Humidity Pressure Visibility Wind Dir Wind Speed Gust Speed Precip Events Conditions
12:53 AM 30.9 °F 26.2 °F 18.0 °F 59% 30.19 in 10.0 mi South 4.6 mph - N/A   Clear
2:53 AM 28.9 °F 22.8 °F 17.1 °F 61% 30.17 in 10.0 mi South 5.8 mph - N/A   Clear
3:53 AM 28.0 °F - 17.1 °F 63% 30.18 in 10.0 mi Calm Calm - N/A   Clear
5:53 AM 26.1 °F 20.5 °F 16.0 °F 66% 30.18 in 10.0 mi South 4.6 mph - N/A   Clear
6:53 AM 25.0 °F 19.3 °F 15.1 °F 66% 30.21 in 10.0 mi South 4.6 mph - N/A   Clear
7:53 AM 30.9 °F 27.5 °F 18.0 °F 59% 30.21 in 10.0 mi South 3.5 mph - N/A   Clear
8:53 AM 44.1 °F - 18.0 °F 35% 30.18 in 10.0 mi Calm Calm - N/A   Clear
9:53 AM 51.1 °F - 9.0 °F 18% 30.17 in 10.0 mi Variable 3.5 mph - N/A   Clear
10:53 AM 55.0 °F - 14.0 °F 20% 30.17 in 10.0 mi NNE 3.5 mph - N/A   Clear
11:53 AM 57.0 °F - 17.1 °F 21% 30.17 in 10.0 mi Variable 5.8 mph - N/A   Clear
12:53 PM 61.0 °F - 19.9 °F 21% 30.16 in 10.0 mi NNE 5.8 mph - N/A   Clear
1:53 PM 63.0 °F - 19.9 °F 19% 30.15 in 10.0 mi North 5.8 mph - N/A   Clear
2:53 PM 64.9 °F - 21.9 °F 19% 30.12 in 10.0 mi NE 11.5 mph - N/A   Clear
3:53 PM 66.9 °F - 21.9 °F 18% 30.10 in 10.0 mi Variable 3.5 mph - N/A   Clear
4:53 PM 64.0 °F - 32.0 °F 30% 30.11 in 10.0 mi SSW 10.4 mph 17.3 mph N/A   Clear
5:53 PM 61.0 °F - 36.0 °F 39% 30.13 in 10.0 mi SSW 8.1 mph - N/A   Clear
6:53 PM 57.0 °F - 37.9 °F 49% 30.15 in 10.0 mi Variable 3.5 mph - N/A   Clear
7:53 PM 52.0 °F - 39.0 °F 61% 30.16 in 10.0 mi Variable 3.5 mph - N/A   Clear
8:53 PM 50.0 °F - 39.9 °F 68% 30.14 in 10.0 mi Calm Calm - N/A   Clear
9:53 PM 46.0 °F - 39.0 °F 76% 30.14 in 10.0 mi Calm Calm - N/A   Clear
10:53 PM 44.1 °F 42.5 °F 36.0 °F 73% 30.13 in 10.0 mi South 3.5 mph - N/A   Clear
11:53 PM 42.1 °F 38.4 °F 35.1 °F 76% 30.12 in 10.0 mi South 5.8 mph - N/A   Clear